Lid_Strength_Index
0 0 0 0 0 0 0 0 1 0 0 1 1 1 1 1 0 1 1 1 1 1 1 1 1 0 1 1 0 1 1 2 3 2 1 0 0 -0 -1 -1 -1 -1 -1
0 0 0 0 0 0 1 0 0 1 0 0 0 1 1 1 1 1 1 1 1 2 1 1 1 1 1 0 1 1 2 1 2 3 1 1 1 -0 -0 -0 -1 -2 -1
1 1 0 1 1 1 1 0 0 1 1 1 0 1 1 1 1 1 1 1 1 1 1 1 1 1 1 1 1 1 1 1 1 2 2 1 1 0 1 0 -0 -0 -0
1 2 1 1 1 1 0 1 0 1 1 1 1 1 1 1 1 1 1 1 1 1 1 1 1 1 1 1 1 1 0 1 1 2 2 2 2 1 1 2 2 0 1
1 1 1 1 1 1 1 1 1 1 1 1 1 1 1 1 1 1 1 1 1 1 1 1 1 1 2 1 1 1 1 1 2 2 2 3 3 2 3 1 2 1 1
1 1 1 1 1 1 1 1 1 1 1 1 1 1 1 1 7 7 2 1 1 1 2 1 1 2 2 5 4 4 2 1 2 2 3 3 2 2 2 2 2 3 4
1 1 1 1 2 1 1 1 1 1 1 1 1 1 2 1 10 10 7 1 1 1 1 1 1 1 1 0 6 5 5 6 4 1 2 2 2 1 1 2 2 2 2
2 2 1 2 2 2 2 2 2 1 2 2 2 1 1 1 11 10 9 1 1 1 1 1 1 1 1 1 1 1 1 0 0 0 0 0 -0 -0 0 0 1 1 1
3 3 2 2 2 2 2 2 2 2 2 2 1 2 1 2 12 10 5 1 1 1 1 0 1 1 6 8 1 1 1 1 6 8 7 9 7 6 3 0 2 3 3
3 3 3 3 2 2 2 2 2 2 2 2 2 1 3 2 12 10 5 1 2 2 1 1 8 2 10 9 1 1 2 2 1 0 0 2 3 3 6 -0 1 3 3
3 2 2 2 3 2 2 3 2 2 2 2 2 2 1 2 5 11 10 1 2 2 2 2 1 11 11 11 9 1 2 1 2 1 1 0 0 0 0 -0 -1 1 2
3 2 2 2 2 2 2 3 2 2 3 3 3 3 2 1 7 11 10 6 4 2 2 1 4 12 12 10 7 10 8 5 1 1 2 2 2 1 1 0 -1 -1 -1
4 4 2 2 2 3 4 2 3 3 3 4 3 3 3 2 2 12 11 10 7 2 1 8 12 12 11 8 11 10 9 1 1 2 2 2 1 1 -0 -0 -1 -1 -1
5 6 5 5 5 3 2 3 3 3 4 4 3 3 3 2 2 1 2 3 7 6 8 4 5 6 7 4 3 4 1 1 1 2 2 1 1 1 1 1 1 1 1
6 5 4 3 3 3 4 3 3 2 3 3 3 2 3 3 2 3 3 1 1 3 2 1 1 2 2 2 1 1 1 1 1 1 2 2 2 1 2 1 1 1 2
4 5 4 4 4 4 6 8 15 12 12 11 8 3 2 8 11 11 11 10 10 8 2 2 2 2 2 2 2 2 1 2 1 1 1 1 2 2 2 2 1 2 3
4 5 3 4 3 3 4 5 6 10 12 13 11 9 9 11 12 12 12 11 11 8 2 2 3 2 2 2 2 2 2 1 1 1 1 1 2 2 2 2 2 2 2
4 8 3 3 3 3 3 3 3 3 4 5 12 10 13 12 13 13 12 8 2 3 2 2 2 2 2 2 2 2 1 1 1 1 1 1 1 2 2 2 2 2 2
3 4 3 3 2 3 2 3 3 3 4 6 6 10 12 13 12 12 11 1 2 2 2 2 1 2 2 1 1 1 1 1 1 1 1 1 1 2 2 2 2 7 6
3 7 8 3 3 2 3 3 3 3 3 3 3 6 6 5 3 2 2 1 2 2 2 2 2 1 1 1 1 1 1 1 1 1 1 1 1 1 2 2 2 2 2
3 3 9 3 2 2 3 3 3 3 3 3 3 3 8 2 2 2 2 2 2 2 2 1 1 1 1 1 1 1 1 1 1 2 1 1 1 1 1 1 2 1 2
2 2 3 3 2 2 2 2 3 3 3 3 2 4 11 2 2 2 4 5 4 3 2 1 3 4 4 4 1 1 2 3 2 2 2 1 1 1 1 2 2 2 2
2 3 3 2 2 5 3 3 3 2 2 2 2 2 2 2 4 7 8 9 8 8 9 8 8 9 8 7 7 6 3 2 2 2 2 1 1 1 1 2 2 2 3
2 3 3 3 3 3 3 3 2 5 2 3 4 3 4 6 9 10 11 11 12 11 11 12 12 11 10 9 10 9 8 7 3 1 0 0 1 2 1 1 2 2 2
2 2 3 3 3 3 3 3 3 3 4 5 6 7 8 10 11 12 12 12 12 13 13 13 13 13 12 12 12 11 14 15 8 10 1 1 2 4 4 4 4 6 6
2 2 2 2 3 3 4 5 5 5 5 6 8 9 10 11 13 13 13 13 14 14 14 14 14 14 14 14 14 15 15 15 12 13 7 6 7 7 8 8 8 8 7